Year,Month,Day,Hour,Minute,Value (Times are PST for temperature in C)
2019,08,06,00,01,15.80
2019,08,06,00,02,15.80
2019,08,06,00,03,15.80
2019,08,06,00,04,15.80
2019,08,06,00,06,15.70
2019,08,06,00,07,15.60
2019,08,06,00,09,15.60
2019,08,06,00,11,15.50
2019,08,06,00,12,15.50
2019,08,06,00,13,15.50
2019,08,06,00,14,15.50
2019,08,06,00,16,15.40
2019,08,06,00,17,15.40
2019,08,06,00,18,15.40
2019,08,06,00,19,15.40
2019,08,06,00,21,15.40
2019,08,06,00,22,15.40
2019,08,06,00,23,15.40
2019,08,06,00,24,15.40
2019,08,06,00,26,15.40
2019,08,06,00,27,15.40
2019,08,06,00,28,15.40
2019,08,06,00,29,15.40
2019,08,06,00,30,15.40
2019,08,06,00,32,15.40
2019,08,06,00,33,15.50
2019,08,06,00,34,15.50
2019,08,06,00,36,15.50
2019,08,06,00,37,15.50
2019,08,06,00,38,15.50
2019,08,06,00,39,15.50
2019,08,06,00,41,15.50
2019,08,06,00,42,15.50
2019,08,06,00,43,15.50
2019,08,06,00,44,15.50
2019,08,06,00,45,15.60
2019,08,06,00,46,15.60
2019,08,06,00,47,15.60
2019,08,06,00,48,15.70
2019,08,06,00,49,15.70
2019,08,06,00,51,15.80
2019,08,06,00,52,15.80
2019,08,06,00,53,15.80
2019,08,06,00,54,15.80
2019,08,06,00,55,15.80
2019,08,06,00,56,15.80
2019,08,06,00,57,15.80
2019,08,06,00,58,15.80
2019,08,06,00,59,15.80
2019,08,06,01,00,15.80
2019,08,06,01,01,15.80
2019,08,06,01,02,15.80
2019,08,06,01,03,15.80
2019,08,06,01,04,15.80
2019,08,06,01,05,15.80
2019,08,06,01,06,15.80
2019,08,06,01,07,15.80
2019,08,06,01,08,15.80
2019,08,06,01,09,15.80
2019,08,06,01,10,15.80
2019,08,06,01,11,15.80
2019,08,06,01,12,15.80
2019,08,06,01,13,15.80
2019,08,06,01,14,15.80
2019,08,06,01,15,15.70
2019,08,06,01,16,15.70
2019,08,06,01,17,15.70
2019,08,06,01,18,15.60
2019,08,06,01,19,15.60
2019,08,06,01,20,15.60
2019,08,06,01,21,15.50
2019,08,06,01,22,15.50
2019,08,06,01,23,15.50
2019,08,06,01,24,15.50
2019,08,06,01,25,15.40
2019,08,06,01,26,15.40
2019,08,06,01,27,15.40
2019,08,06,01,28,15.30
2019,08,06,01,29,15.30
2019,08,06,01,30,15.30
2019,08,06,01,31,15.30
2019,08,06,01,32,15.30
2019,08,06,01,33,15.30
2019,08,06,01,34,15.20
2019,08,06,01,35,15.20
2019,08,06,01,36,15.10
2019,08,06,01,37,15.10
2019,08,06,01,38,15.10
2019,08,06,01,39,15.00
2019,08,06,01,40,15.00
2019,08,06,01,41,14.90
2019,08,06,01,42,14.90
2019,08,06,01,43,14.90
2019,08,06,01,44,14.80
2019,08,06,01,45,14.80
2019,08,06,01,46,14.80
2019,08,06,01,47,14.80
2019,08,06,01,48,14.80
2019,08,06,01,49,14.80
2019,08,06,01,50,14.80
2019,08,06,01,51,14.80
2019,08,06,01,52,14.80
2019,08,06,01,53,14.80
2019,08,06,01,54,14.80
2019,08,06,01,55,14.80
2019,08,06,01,56,14.80
2019,08,06,01,57,14.80
2019,08,06,01,58,14.80
2019,08,06,01,59,14.80
2019,08,06,02,00,14.80
2019,08,06,02,01,14.80
2019,08,06,02,02,14.80
2019,08,06,02,03,14.80
2019,08,06,02,04,14.80
2019,08,06,02,05,14.80
2019,08,06,02,06,14.80
2019,08,06,02,07,14.80
2019,08,06,02,08,14.80
2019,08,06,02,09,14.80
2019,08,06,02,10,14.80
2019,08,06,02,11,14.80
2019,08,06,02,12,14.80
2019,08,06,02,13,14.80
2019,08,06,02,14,14.80
2019,08,06,02,15,14.80
2019,08,06,02,16,14.90
2019,08,06,02,17,14.90
2019,08,06,02,18,14.90
2019,08,06,02,19,14.90
2019,08,06,02,20,14.90
2019,08,06,02,21,14.90
2019,08,06,02,22,14.90
2019,08,06,02,23,14.90
2019,08,06,02,24,14.90
2019,08,06,02,25,14.90
2019,08,06,02,26,14.90
2019,08,06,02,27,14.90
2019,08,06,02,28,14.90
2019,08,06,02,29,14.90
2019,08,06,02,30,14.80
2019,08,06,02,31,14.80
2019,08,06,02,32,14.80
2019,08,06,02,33,14.80
2019,08,06,02,34,14.70
2019,08,06,02,35,14.70
2019,08,06,02,36,14.70
2019,08,06,02,37,14.60
2019,08,06,02,38,14.60
2019,08,06,02,39,14.60
2019,08,06,02,40,14.50
2019,08,06,02,41,14.50
2019,08,06,02,42,14.50
2019,08,06,02,43,14.40
2019,08,06,02,44,14.40
2019,08,06,02,45,14.30
2019,08,06,02,46,14.30
2019,08,06,02,47,14.20
2019,08,06,02,48,14.20
2019,08,06,02,49,14.20
2019,08,06,02,50,14.10
2019,08,06,02,51,14.10
2019,08,06,02,52,14.00
2019,08,06,02,53,14.00
2019,08,06,02,54,13.90
2019,08,06,02,55,13.90
2019,08,06,02,56,13.80
2019,08,06,02,57,13.80
2019,08,06,02,58,13.70
2019,08,06,02,59,13.70
2019,08,06,03,00,13.70
2019,08,06,03,01,13.70
2019,08,06,03,02,13.70
2019,08,06,03,03,13.60
2019,08,06,03,04,13.60
2019,08,06,03,05,13.60
2019,08,06,03,06,13.50
2019,08,06,03,07,13.50
2019,08,06,03,08,13.50
2019,08,06,03,09,13.50
2019,08,06,03,10,13.50
2019,08,06,03,11,13.40
2019,08,06,03,12,13.40
2019,08,06,03,13,13.40
2019,08,06,03,14,13.40
2019,08,06,03,15,13.40
2019,08,06,03,16,13.30
2019,08,06,03,17,13.30
2019,08,06,03,18,13.30
2019,08,06,03,19,13.30
2019,08,06,03,20,13.30
2019,08,06,03,21,13.30
2019,08,06,03,22,13.30
2019,08,06,03,23,13.30
2019,08,06,03,24,13.30
2019,08,06,03,25,13.30
2019,08,06,03,26,13.30
2019,08,06,03,27,13.30
2019,08,06,03,28,13.30
2019,08,06,03,29,13.30
2019,08,06,03,30,13.30
2019,08,06,03,31,13.30
2019,08,06,03,32,13.30
2019,08,06,03,33,13.30
2019,08,06,03,34,13.30
2019,08,06,03,35,13.30
2019,08,06,03,36,13.20
2019,08,06,03,37,13.20
2019,08,06,03,38,13.20
2019,08,06,03,39,13.20
2019,08,06,03,40,13.20
2019,08,06,03,42,13.20
2019,08,06,03,44,13.20
2019,08,06,03,46,13.20
2019,08,06,03,47,13.10
2019,08,06,03,48,13.10
2019,08,06,03,49,13.10
2019,08,06,03,51,13.10
2019,08,06,03,52,13.10
2019,08,06,03,53,13.10
2019,08,06,03,54,13.10
2019,08,06,03,56,13.00
2019,08,06,03,57,13.00
2019,08,06,03,58,13.00
2019,08,06,03,59,13.00
2019,08,06,04,01,13.00
2019,08,06,04,02,13.00
2019,08,06,04,03,13.00
2019,08,06,04,04,13.00
2019,08,06,04,06,13.00
2019,08,06,04,07,13.00
2019,08,06,04,08,13.00
2019,08,06,04,09,13.00
2019,08,06,04,11,12.90
2019,08,06,04,12,12.90
2019,08,06,04,13,12.90
2019,08,06,04,14,12.90
2019,08,06,04,16,12.90
2019,08,06,04,17,12.90
2019,08,06,04,18,12.90
2019,08,06,04,19,12.90
2019,08,06,04,21,12.80
2019,08,06,04,22,12.80
2019,08,06,04,23,12.80
2019,08,06,04,24,12.80
2019,08,06,04,26,12.80
2019,08,06,04,27,12.80
2019,08,06,04,28,12.80
2019,08,06,04,29,12.80
2019,08,06,04,31,12.80
2019,08,06,04,32,12.80
2019,08,06,04,33,12.80
2019,08,06,04,34,12.80
2019,08,06,04,36,12.80
2019,08,06,04,37,12.80
2019,08,06,04,38,12.80
2019,08,06,04,39,12.80
2019,08,06,04,41,12.80
2019,08,06,04,42,12.80
2019,08,06,04,43,12.80
2019,08,06,04,44,12.80
2019,08,06,04,46,12.80
2019,08,06,04,47,12.80
2019,08,06,04,48,12.80
2019,08,06,04,49,12.80
2019,08,06,04,51,12.80
2019,08,06,04,52,12.80
2019,08,06,04,53,12.70
2019,08,06,04,54,12.70
2019,08,06,04,56,12.70
2019,08,06,04,57,12.70
2019,08,06,04,58,12.70
2019,08,06,04,59,12.70
2019,08,06,05,01,12.70
2019,08,06,05,02,12.70
2019,08,06,05,03,12.60
2019,08,06,05,04,12.60
2019,08,06,05,06,12.60
2019,08,06,05,07,12.60
2019,08,06,05,08,12.60
2019,08,06,05,09,12.60
2019,08,06,05,11,12.60
2019,08,06,05,12,12.60
2019,08,06,05,13,12.60
2019,08,06,05,14,12.60
2019,08,06,05,15,12.60
2019,08,06,05,16,12.60
2019,08,06,05,17,12.60
2019,08,06,05,18,12.60
2019,08,06,05,19,12.60
2019,08,06,05,20,12.60
2019,08,06,05,21,12.60
2019,08,06,05,22,12.60
2019,08,06,05,23,12.60
2019,08,06,05,24,12.60
2019,08,06,05,25,12.60
2019,08,06,05,26,12.60
2019,08,06,05,27,12.60
2019,08,06,05,28,12.60
2019,08,06,05,29,12.60
2019,08,06,05,30,12.60
2019,08,06,05,31,12.60
2019,08,06,05,32,12.60
2019,08,06,05,33,12.60
2019,08,06,05,34,12.60
2019,08,06,05,35,12.60
2019,08,06,05,36,12.60
2019,08,06,05,37,12.60
2019,08,06,05,38,12.60
2019,08,06,05,39,12.60
2019,08,06,05,40,12.50
2019,08,06,05,41,12.50
2019,08,06,05,42,12.50
2019,08,06,05,43,12.50
2019,08,06,05,44,12.50
2019,08,06,05,45,12.50
2019,08,06,05,46,12.50
2019,08,06,05,47,12.50
2019,08,06,05,48,12.50
2019,08,06,05,49,12.50
2019,08,06,05,50,12.40
2019,08,06,05,51,12.40
2019,08,06,05,52,12.40
2019,08,06,05,53,12.40
2019,08,06,05,54,12.40
2019,08,06,05,55,12.40
2019,08,06,05,56,12.40
2019,08,06,05,57,12.40
2019,08,06,05,58,12.40
2019,08,06,05,59,12.40
2019,08,06,06,00,12.40
2019,08,06,06,01,12.40
2019,08,06,06,02,12.40
2019,08,06,06,03,12.40
2019,08,06,06,04,12.40
2019,08,06,06,05,12.40
2019,08,06,06,06,12.40
2019,08,06,06,07,12.40
2019,08,06,06,08,12.30
2019,08,06,06,09,12.30
2019,08,06,06,10,12.30
2019,08,06,06,11,12.30
2019,08,06,06,12,12.30
2019,08,06,06,13,12.30
2019,08,06,06,14,12.30
2019,08,06,06,15,12.30
2019,08,06,06,16,12.30
2019,08,06,06,17,12.30
2019,08,06,06,18,12.30
2019,08,06,06,19,12.30
2019,08,06,06,20,12.30
2019,08,06,06,21,12.30
2019,08,06,06,22,12.30
2019,08,06,06,23,12.30
2019,08,06,06,24,12.30
2019,08,06,06,25,12.30
2019,08,06,06,26,12.30
2019,08,06,06,27,12.30
2019,08,06,06,28,12.30
2019,08,06,06,29,12.30
2019,08,06,06,30,12.30
2019,08,06,06,32,12.30
2019,08,06,06,33,12.30
2019,08,06,06,34,12.30
2019,08,06,06,35,12.30
2019,08,06,06,36,12.30
2019,08,06,06,37,12.30
2019,08,06,06,38,12.30
2019,08,06,06,39,12.30
2019,08,06,06,40,12.30
2019,08,06,06,41,12.30
2019,08,06,06,42,12.30
2019,08,06,06,43,12.30
2019,08,06,06,44,12.30
2019,08,06,06,45,12.30
2019,08,06,06,46,12.30
2019,08,06,06,47,12.30
2019,08,06,06,48,12.30
2019,08,06,06,49,12.30
2019,08,06,06,50,12.30
2019,08,06,06,51,12.30
2019,08,06,06,52,12.30
2019,08,06,06,53,12.30
2019,08,06,06,54,12.30
2019,08,06,06,55,12.30
2019,08,06,06,56,12.30
2019,08,06,06,57,12.30
2019,08,06,06,58,12.30
2019,08,06,06,59,12.30
2019,08,06,07,00,12.30
2019,08,06,07,01,12.30
2019,08,06,07,02,12.30
2019,08,06,07,03,12.30
2019,08,06,07,04,12.40
2019,08,06,07,05,12.40
2019,08,06,07,06,12.40
2019,08,06,07,07,12.40
2019,08,06,07,08,12.50
2019,08,06,07,09,12.50
2019,08,06,07,10,12.50
2019,08,06,07,11,12.60
2019,08,06,07,12,12.60
2019,08,06,07,13,12.60
2019,08,06,07,14,12.60
2019,08,06,07,15,12.60
2019,08,06,07,16,12.70
2019,08,06,07,17,12.70
2019,08,06,07,18,12.70
2019,08,06,07,19,12.70
2019,08,06,07,20,12.70
2019,08,06,07,21,12.70
2019,08,06,07,22,12.70
2019,08,06,07,23,12.70
2019,08,06,07,24,12.70
2019,08,06,07,25,12.70
2019,08,06,07,26,12.70
2019,08,06,07,27,12.70
2019,08,06,07,28,12.70
2019,08,06,07,29,12.70
2019,08,06,07,30,12.70
2019,08,06,07,31,12.70
2019,08,06,07,32,12.70
2019,08,06,07,33,12.70
2019,08,06,07,34,12.70
2019,08,06,07,35,12.70
2019,08,06,07,36,12.70
2019,08,06,07,37,12.70
2019,08,06,07,38,12.70
2019,08,06,07,39,12.70
2019,08,06,07,40,12.70
2019,08,06,07,41,12.70
2019,08,06,07,42,12.70
2019,08,06,07,43,12.70
2019,08,06,07,44,12.70
2019,08,06,07,45,12.70
2019,08,06,07,46,12.70
2019,08,06,07,47,12.70
2019,08,06,07,48,12.70
2019,08,06,07,49,12.70
2019,08,06,07,50,12.70
2019,08,06,07,51,12.70
2019,08,06,07,52,12.80
2019,08,06,07,53,12.80
2019,08,06,07,54,12.80
2019,08,06,07,55,12.80
2019,08,06,07,56,12.80
2019,08,06,07,57,12.80
2019,08,06,07,58,12.80
2019,08,06,07,59,12.80
2019,08,06,08,00,12.80
2019,08,06,08,01,12.80
2019,08,06,08,02,12.80
2019,08,06,08,03,12.80
2019,08,06,08,04,12.80
2019,08,06,08,05,12.80
2019,08,06,08,06,12.80
2019,08,06,08,07,12.80
2019,08,06,08,08,12.80
2019,08,06,08,09,12.80
2019,08,06,08,10,12.80
2019,08,06,08,11,12.80
2019,08,06,08,12,12.80
2019,08,06,08,13,12.80
2019,08,06,08,14,12.80
2019,08,06,08,15,12.80
2019,08,06,08,16,12.80
2019,08,06,08,17,12.80
2019,08,06,08,18,12.80
2019,08,06,08,19,12.80
2019,08,06,08,20,12.90
2019,08,06,08,21,12.90
2019,08,06,08,22,12.90
2019,08,06,08,23,13.00
2019,08,06,08,24,13.00
2019,08,06,08,25,13.10
2019,08,06,08,26,13.20
2019,08,06,08,27,13.20
2019,08,06,08,28,13.30
2019,08,06,08,29,13.30
2019,08,06,08,30,13.30
2019,08,06,08,31,13.30
2019,08,06,08,32,13.40
2019,08,06,08,33,13.50
2019,08,06,08,34,13.50
2019,08,06,08,35,13.60
2019,08,06,08,36,13.60
2019,08,06,08,37,13.70
2019,08,06,08,38,13.70
2019,08,06,08,39,13.70
2019,08,06,08,40,13.80
2019,08,06,08,41,13.90
2019,08,06,08,42,13.90
2019,08,06,08,43,13.90
2019,08,06,08,44,14.00
2019,08,06,08,45,14.00
2019,08,06,08,46,14.00
2019,08,06,08,47,14.00
2019,08,06,08,48,14.10
2019,08,06,08,49,14.10
2019,08,06,08,51,14.10
2019,08,06,08,53,14.20
2019,08,06,08,54,14.20
2019,08,06,08,56,14.20
2019,08,06,08,57,14.20
2019,08,06,08,58,14.20
2019,08,06,08,59,14.20
2019,08,06,09,01,14.20
2019,08,06,09,02,14.20
2019,08,06,09,03,14.20
2019,08,06,09,04,14.20
2019,08,06,09,06,14.20
2019,08,06,09,07,14.20
2019,08,06,09,09,14.20
2019,08,06,09,11,14.30
2019,08,06,09,12,14.40
2019,08,06,09,13,14.50
2019,08,06,09,14,14.50
2019,08,06,09,16,14.70
2019,08,06,09,17,14.70
2019,08,06,09,18,14.80
2019,08,06,09,19,14.80
2019,08,06,09,21,14.90
2019,08,06,09,22,15.00
2019,08,06,09,23,15.10
2019,08,06,09,24,15.20
2019,08,06,09,26,15.30
2019,08,06,09,27,15.30
2019,08,06,09,28,15.30
2019,08,06,09,29,15.40
2019,08,06,09,31,15.50
2019,08,06,09,32,15.50
2019,08,06,09,33,15.50
2019,08,06,09,34,15.50
2019,08,06,09,36,15.60
2019,08,06,09,37,15.60
2019,08,06,09,38,15.60
2019,08,06,09,39,15.60
2019,08,06,09,41,15.70
2019,08,06,09,42,15.70
2019,08,06,09,43,15.80
2019,08,06,09,44,15.80
2019,08,06,09,46,15.80
2019,08,06,09,47,15.80
2019,08,06,09,48,15.90
2019,08,06,09,49,15.90
2019,08,06,09,51,16.10
2019,08,06,09,52,16.10
2019,08,06,09,53,16.10
2019,08,06,09,54,16.10
2019,08,06,09,56,16.10
2019,08,06,09,57,16.10
2019,08,06,09,58,16.20
2019,08,06,09,59,16.20
2019,08,06,10,01,16.30
2019,08,06,10,02,16.30
2019,08,06,10,03,16.40
2019,08,06,10,04,16.40
2019,08,06,10,06,16.40
2019,08,06,10,07,16.60
2019,08,06,10,08,16.60
2019,08,06,10,09,16.70
2019,08,06,10,11,16.80
2019,08,06,10,12,16.90
2019,08,06,10,13,16.90
2019,08,06,10,14,17.00
2019,08,06,10,16,17.10
2019,08,06,10,17,17.20
2019,08,06,10,18,17.30
2019,08,06,10,19,17.30
2019,08,06,10,21,17.40
2019,08,06,10,22,17.50
2019,08,06,10,23,17.50
2019,08,06,10,24,17.60
2019,08,06,10,26,17.70
2019,08,06,10,27,17.70
2019,08,06,10,28,17.70
2019,08,06,10,29,17.70
2019,08,06,10,31,17.70
2019,08,06,10,32,17.70
2019,08,06,10,33,17.70
2019,08,06,10,34,17.70
2019,08,06,10,36,17.70
2019,08,06,10,37,17.70
2019,08,06,10,38,17.70
2019,08,06,10,39,17.70
2019,08,06,10,40,17.70
2019,08,06,10,41,17.70
2019,08,06,10,42,17.70
2019,08,06,10,43,17.80
2019,08,06,10,44,17.80
2019,08,06,10,45,17.80
2019,08,06,10,46,17.80
2019,08,06,10,47,17.90
2019,08,06,10,48,17.90
2019,08,06,10,49,17.90
2019,08,06,10,50,17.90
2019,08,06,10,51,17.90
2019,08,06,10,52,17.90
2019,08,06,10,53,17.90
2019,08,06,10,54,18.10
2019,08,06,10,55,18.10
2019,08,06,10,56,18.20
2019,08,06,10,57,18.20
2019,08,06,10,58,18.30
2019,08,06,10,59,18.40
2019,08,06,11,00,18.50
2019,08,06,11,01,18.60
2019,08,06,11,02,18.60
2019,08,06,11,03,18.70
2019,08,06,11,04,18.80
2019,08,06,11,05,18.80
2019,08,06,11,06,18.90
2019,08,06,11,07,18.90
2019,08,06,11,08,18.90
2019,08,06,11,09,18.90
2019,08,06,11,10,18.90
2019,08,06,11,11,18.90
2019,08,06,11,12,18.90
2019,08,06,11,13,18.90
2019,08,06,11,14,18.90
2019,08,06,11,15,18.90
2019,08,06,11,16,18.90
2019,08,06,11,17,18.90
2019,08,06,11,18,18.90
2019,08,06,11,19,18.90
2019,08,06,11,20,18.90
2019,08,06,11,21,18.90
2019,08,06,11,22,18.90
2019,08,06,11,23,18.70
2019,08,06,11,24,18.60
2019,08,06,11,25,18.60
2019,08,06,11,26,18.60
2019,08,06,11,27,18.50
2019,08,06,11,28,18.40
2019,08,06,11,29,18.30
2019,08,06,11,30,18.30
2019,08,06,11,31,18.30
2019,08,06,11,32,18.30
2019,08,06,11,33,18.30
2019,08,06,11,34,18.30
2019,08,06,11,35,18.40
2019,08,06,11,36,18.40
2019,08,06,11,37,18.50
2019,08,06,11,38,18.60
2019,08,06,11,39,18.70
2019,08,06,11,40,18.80
2019,08,06,11,41,18.90
2019,08,06,11,42,18.90
2019,08,06,11,43,19.10
2019,08,06,11,44,19.10
2019,08,06,11,45,19.10
2019,08,06,11,46,19.20
2019,08,06,11,47,19.30
2019,08,06,11,48,19.40
2019,08,06,11,49,19.50
2019,08,06,11,50,19.60
2019,08,06,11,51,19.70
2019,08,06,11,52,19.70
2019,08,06,11,53,19.70
2019,08,06,11,54,19.70
2019,08,06,11,55,19.80
2019,08,06,11,56,19.80
2019,08,06,11,57,19.80
2019,08,06,11,58,19.90
2019,08,06,11,59,19.90
2019,08,06,12,00,19.90
2019,08,06,12,01,20.10
2019,08,06,12,02,20.10
2019,08,06,12,03,20.20
2019,08,06,12,04,20.20
2019,08,06,12,05,20.20
2019,08,06,12,06,20.30
2019,08,06,12,07,20.40
2019,08,06,12,08,20.50
2019,08,06,12,09,20.60
2019,08,06,12,10,20.70
2019,08,06,12,11,20.80
2019,08,06,12,12,20.80
2019,08,06,12,13,20.80
2019,08,06,12,14,20.80
2019,08,06,12,15,20.80
2019,08,06,12,16,20.80
2019,08,06,12,17,20.80
2019,08,06,12,18,20.70
2019,08,06,12,19,20.60
2019,08,06,12,20,20.50
2019,08,06,12,21,20.40
2019,08,06,12,22,20.30
2019,08,06,12,23,20.20
2019,08,06,12,24,20.20
2019,08,06,12,25,20.10
2019,08,06,12,26,19.90
2019,08,06,12,27,19.90
2019,08,06,12,28,19.90
2019,08,06,12,29,19.90
2019,08,06,12,30,20.10
2019,08,06,12,32,20.10
2019,08,06,12,33,20.10
2019,08,06,12,34,20.10
2019,08,06,12,35,20.20
2019,08,06,12,36,20.20
2019,08,06,12,37,20.20
2019,08,06,12,38,20.20
2019,08,06,12,39,20.20
2019,08,06,12,40,20.10
2019,08,06,12,41,20.10
2019,08,06,12,42,19.90
2019,08,06,12,43,19.90
2019,08,06,12,44,19.80
2019,08,06,12,45,19.70
2019,08,06,12,46,19.60
2019,08,06,12,47,19.50
2019,08,06,12,48,19.50
2019,08,06,12,49,19.50
2019,08,06,12,50,19.50
2019,08,06,12,51,19.60
2019,08,06,12,52,19.60
2019,08,06,12,53,19.60
2019,08,06,12,54,19.60
2019,08,06,12,55,19.70
2019,08,06,12,56,19.70
2019,08,06,12,57,19.80
2019,08,06,12,58,19.80
2019,08,06,12,59,19.80
2019,08,06,13,00,19.80
2019,08,06,13,01,19.70
2019,08,06,13,02,19.70
2019,08,06,13,03,19.70
2019,08,06,13,04,19.70
2019,08,06,13,05,19.70
2019,08,06,13,06,19.70
2019,08,06,13,07,19.60
2019,08,06,13,08,19.50
2019,08,06,13,09,19.50
2019,08,06,13,10,19.50
2019,08,06,13,11,19.50
2019,08,06,13,12,19.60
2019,08,06,13,13,19.70
2019,08,06,13,14,19.70
2019,08,06,13,15,19.80
2019,08,06,13,16,19.80
2019,08,06,13,17,19.90
2019,08,06,13,18,19.90
2019,08,06,13,19,19.90
2019,08,06,13,20,20.10
2019,08,06,13,21,20.10
2019,08,06,13,22,20.20
2019,08,06,13,23,20.20
2019,08,06,13,24,20.20
2019,08,06,13,25,20.20
2019,08,06,13,26,20.30
2019,08,06,13,27,20.40
2019,08,06,13,28,20.50
2019,08,06,13,29,20.60
2019,08,06,13,30,20.70
2019,08,06,13,31,20.70
2019,08,06,13,32,20.80
2019,08,06,13,33,20.80
2019,08,06,13,34,20.90
2019,08,06,13,35,21.00
2019,08,06,13,36,21.10
2019,08,06,13,37,21.20
2019,08,06,13,38,21.30
2019,08,06,13,39,21.30
2019,08,06,13,40,21.30
2019,08,06,13,41,21.40
2019,08,06,13,42,21.60
2019,08,06,13,43,21.60
2019,08,06,13,44,21.60
2019,08,06,13,45,21.70
2019,08,06,13,46,21.70
2019,08,06,13,47,21.70
2019,08,06,13,48,21.70
2019,08,06,13,49,21.80
2019,08,06,13,50,21.80
2019,08,06,13,51,21.80
2019,08,06,13,52,21.80
2019,08,06,13,53,21.70
2019,08,06,13,54,21.60
2019,08,06,13,55,21.60
2019,08,06,13,56,21.60
2019,08,06,13,57,21.60
2019,08,06,13,58,21.60
2019,08,06,13,59,21.60
2019,08,06,14,00,21.40
2019,08,06,14,01,21.60
2019,08,06,14,02,21.40
2019,08,06,14,03,21.40
2019,08,06,14,04,21.30
2019,08,06,14,05,21.30
2019,08,06,14,06,21.10
2019,08,06,14,07,21.00
2019,08,06,14,08,20.90
2019,08,06,14,09,20.80
2019,08,06,14,10,20.70
2019,08,06,14,11,20.60
2019,08,06,14,12,20.40
2019,08,06,14,13,20.30
2019,08,06,14,14,20.20
2019,08,06,14,15,20.10
2019,08,06,14,16,20.10
2019,08,06,14,17,20.10
2019,08,06,14,18,19.90
2019,08,06,14,19,19.90
2019,08,06,14,20,19.90
2019,08,06,14,21,20.10
2019,08,06,14,22,20.10
2019,08,06,14,23,20.10
2019,08,06,14,24,20.20
2019,08,06,14,26,20.20
2019,08,06,14,27,20.20
2019,08,06,14,28,20.30
2019,08,06,14,29,20.30
2019,08,06,14,31,20.40
2019,08,06,14,32,20.40
2019,08,06,14,33,20.40
2019,08,06,14,34,20.40
2019,08,06,14,36,20.30
2019,08,06,14,37,20.30
2019,08,06,14,38,20.20
2019,08,06,14,39,20.20
2019,08,06,14,41,20.20
2019,08,06,14,42,20.20
2019,08,06,14,43,20.20
2019,08,06,14,44,20.20
2019,08,06,14,46,20.30
2019,08,06,14,47,20.40
2019,08,06,14,48,20.60
2019,08,06,14,49,20.70
2019,08,06,14,51,21.00
2019,08,06,14,52,21.10
2019,08,06,14,53,21.30
2019,08,06,14,54,21.30
2019,08,06,14,56,21.60
2019,08,06,14,57,21.80
2019,08,06,14,58,21.90
2019,08,06,14,59,22.10
2019,08,06,15,01,22.30
2019,08,06,15,02,22.40
2019,08,06,15,03,22.50
2019,08,06,15,04,22.50
2019,08,06,15,06,22.60
2019,08,06,15,07,22.70
2019,08,06,15,08,22.80
2019,08,06,15,09,22.80
2019,08,06,15,11,22.90
2019,08,06,15,12,23.10
2019,08,06,15,13,23.20
2019,08,06,15,14,23.30
2019,08,06,15,16,23.30
2019,08,06,15,17,23.30
2019,08,06,15,18,23.30
2019,08,06,15,19,23.40
2019,08,06,15,21,23.40
2019,08,06,15,22,23.40
2019,08,06,15,23,23.40
2019,08,06,15,24,23.30
2019,08,06,15,26,23.30
2019,08,06,15,27,23.30
2019,08,06,15,28,23.20
2019,08,06,15,29,23.20
2019,08,06,15,31,23.10
2019,08,06,15,32,23.10
2019,08,06,15,33,22.90
2019,08,06,15,34,22.90
2019,08,06,15,36,22.90
2019,08,06,15,37,22.90
2019,08,06,15,38,22.90
2019,08,06,15,39,22.90
2019,08,06,15,41,23.10
2019,08,06,15,42,23.20
2019,08,06,15,43,23.20
2019,08,06,15,44,23.30
2019,08,06,15,46,23.30
2019,08,06,15,47,23.40
2019,08,06,15,48,23.40
2019,08,06,15,49,23.60
2019,08,06,15,51,23.60
2019,08,06,15,52,23.60
2019,08,06,15,53,23.60
2019,08,06,15,54,23.60
2019,08,06,15,56,23.60
2019,08,06,15,57,23.70
2019,08,06,15,58,23.70
2019,08,06,15,59,23.70
2019,08,06,16,01,23.70
2019,08,06,16,02,23.70
2019,08,06,16,03,23.70
2019,08,06,16,04,23.70
2019,08,06,16,06,23.70
2019,08,06,16,07,23.80
2019,08,06,16,08,23.80
2019,08,06,16,09,23.80
2019,08,06,16,10,23.80
2019,08,06,16,11,23.90
2019,08,06,16,12,23.90
2019,08,06,16,13,23.90
2019,08,06,16,14,23.90
2019,08,06,16,15,23.80
2019,08,06,16,16,23.80
2019,08,06,16,17,23.70
2019,08,06,16,18,23.60
2019,08,06,16,19,23.40
2019,08,06,16,20,23.30
2019,08,06,16,21,23.30
2019,08,06,16,22,23.20
2019,08,06,16,23,23.10
2019,08,06,16,24,22.90
2019,08,06,16,25,22.90
2019,08,06,16,26,22.70
2019,08,06,16,27,22.60
2019,08,06,16,28,22.40
2019,08,06,16,29,22.30
2019,08,06,16,30,22.30
2019,08,06,16,31,22.30
2019,08,06,16,32,22.30
2019,08,06,16,33,22.30
2019,08,06,16,34,22.40
2019,08,06,16,35,22.40
2019,08,06,16,36,22.50
2019,08,06,16,37,22.60
2019,08,06,16,38,22.70
2019,08,06,16,39,22.80
2019,08,06,16,40,22.90
2019,08,06,16,41,22.90
2019,08,06,16,42,23.10
2019,08,06,16,43,23.10
2019,08,06,16,44,23.20
2019,08,06,16,45,23.30
2019,08,06,16,46,23.30
2019,08,06,16,47,23.30
2019,08,06,16,48,23.40
2019,08,06,16,49,23.40
2019,08,06,16,50,23.40
2019,08,06,16,51,23.40
2019,08,06,16,52,23.40
2019,08,06,16,53,23.40
2019,08,06,16,54,23.40
2019,08,06,16,55,23.30
2019,08,06,16,56,23.20
2019,08,06,16,57,23.10
2019,08,06,16,58,22.90
2019,08,06,16,59,22.90
2019,08,06,17,00,22.80
2019,08,06,17,01,22.60
2019,08,06,17,02,22.50
2019,08,06,17,03,22.30
2019,08,06,17,04,22.20
2019,08,06,17,05,22.10
2019,08,06,17,06,22.00
2019,08,06,17,07,21.90
2019,08,06,17,08,21.80
2019,08,06,17,09,21.70
2019,08,06,17,10,21.70
2019,08,06,17,11,21.70
2019,08,06,17,12,21.70
2019,08,06,17,13,21.80
2019,08,06,17,14,21.80
2019,08,06,17,15,21.90
2019,08,06,17,16,22.00
2019,08,06,17,17,22.10
2019,08,06,17,18,22.20
2019,08,06,17,19,22.30
2019,08,06,17,20,22.30
2019,08,06,17,21,22.40
2019,08,06,17,22,22.50
2019,08,06,17,23,22.50
2019,08,06,17,24,22.50
2019,08,06,17,25,22.50
2019,08,06,17,26,22.50
2019,08,06,17,27,22.50
2019,08,06,17,28,22.50
2019,08,06,17,29,22.50
2019,08,06,17,30,22.40
2019,08,06,17,31,22.40
2019,08,06,17,32,22.40
2019,08,06,17,33,22.40
2019,08,06,17,34,22.40
2019,08,06,17,35,22.40
2019,08,06,17,36,22.50
2019,08,06,17,37,22.50
2019,08,06,17,38,22.50
2019,08,06,17,39,22.50
2019,08,06,17,40,22.50
2019,08,06,17,41,22.50
2019,08,06,17,42,22.50
2019,08,06,17,43,22.60
2019,08,06,17,44,22.60
2019,08,06,17,45,22.60
2019,08,06,17,46,22.50
2019,08,06,17,47,22.50
2019,08,06,17,48,22.40
2019,08,06,17,49,22.30
2019,08,06,17,50,22.20
2019,08,06,17,51,22.10
2019,08,06,17,52,22.00
2019,08,06,17,53,21.90
2019,08,06,17,54,21.70
2019,08,06,17,55,21.60
2019,08,06,17,56,21.60
2019,08,06,17,57,21.40
2019,08,06,17,58,21.40
2019,08,06,17,59,21.40
2019,08,06,18,00,21.40
2019,08,06,18,01,21.40
2019,08,06,18,02,21.40
2019,08,06,18,03,21.40
2019,08,06,18,04,21.60
2019,08,06,18,05,21.60
2019,08,06,18,06,21.60
2019,08,06,18,07,21.70
2019,08,06,18,08,21.80
2019,08,06,18,09,21.90
2019,08,06,18,10,21.90
2019,08,06,18,11,22.00
2019,08,06,18,12,22.00
2019,08,06,18,13,22.10
2019,08,06,18,14,22.10
2019,08,06,18,15,22.10
2019,08,06,18,16,22.10
2019,08,06,18,17,22.10
2019,08,06,18,18,22.10
2019,08,06,18,19,22.00
2019,08,06,18,20,22.00
2019,08,06,18,21,22.00
2019,08,06,18,22,22.00
2019,08,06,18,23,22.00
2019,08,06,18,24,21.90
2019,08,06,18,25,21.90
2019,08,06,18,26,21.90
2019,08,06,18,27,21.90
2019,08,06,18,28,21.90
2019,08,06,18,29,21.90
2019,08,06,18,30,21.90
2019,08,06,18,32,21.90
2019,08,06,18,33,21.90
2019,08,06,18,34,21.90
2019,08,06,18,35,22.00
2019,08,06,18,36,22.00
2019,08,06,18,37,22.00
2019,08,06,18,38,22.10